Aeroporto :
LOGIN :

Iscrizione | Disclaimer

   EN    FR    IT 

 










Sommario :    VFR   VFR Marginale   IFR   IFR Intensivo   IFR Molto Intensivo
Visibilità : 
Base nubi : 
>= 8 km
>= 3000ft
5 / 8 km
1000 / 3000 ft
1500m / 5 km
500 / 1000 ft
800 / 1500m
200 / 500 ft
< 800m
< 200 ft
Simboli :   Temporali  Nebbia  Neve Forte  Precipitazioni Forti  Vento > 20 kt
SIGMETs :   Varie  Temporali  Ghiacco  Turbolenza  Onda orograficha  Ceneri Vulcaniche






- Altitudine del aeroporto : 495 ft
- Codice IATA : BUD


LHBP - Budapest Ferihegy

ULTIMO METAR :
  • 191130Z 04008KT 360V080 CAVOK 21/03 Q1023 NOSIG

METARs OBSOLETI :
  • 191100Z VRB04KT CAVOK 21/03 Q1023 NOSIG
  • 191030Z 04007KT 020V080 CAVOK 20/03 Q1024 NOSIG
  • 191000Z 07005KT 360V150 CAVOK 20/03 Q1024 NOSIG
  • 190930Z VRB04KT CAVOK 19/03 Q1024 NOSIG
  • 190900Z VRB03KT CAVOK 19/03 Q1025 NOSIG

TAF TAF LHBP
Valido dal 19 a 12 ore il 20 a 12 ore UTC


191115Z 1912/2012 08006KT CAVOK
BECMG 1914/1916 VRB03KT
TEMPO 1922/2003 07006KT
BECMG 2008/2010 13006KT



MetMap, La meteo Aeronautica in un colpo d'occhio ! - Copyright ORBIFLY Dicembre 2007 - Disclaimer

ORBIFLY MET'MAP TEAM :

Programmazione e sviluppo : Alexandra Zaïnal
Concezione : Baudouin d'Aumeries
Aiuto per la programmazione : Marc-Olivier Méhu
Supporto tecnico e logistico : Manuel Goepfert
Aiuto per la traduzione : Arnaldo La Scala

Contatto : metmap@orbifly.com




FONTI E CREDITI :

   NOAA